TIANLIAN 1-02

导读

TIANLIAN 1-02即天链一号02星,是中国研制发射的第一代数据中继卫星,属于天链一号卫星系统的第二颗卫星。该卫星于2011年7月11日成功发射,定点于东经176.8°,主要为神舟载人飞船及中低轨航天器提供数据中继与测控服务,它与同系列卫星组网后,实现了对中低轨航天器全轨道覆盖,标志中国完成第一代中继卫星系统建设,是中国天基测控体系的核心组成部分。

基本信息
目录编号:
37737
目录名称:
TIANLIAN 1-02
国际标识:
2011-032A
轨道中心:
EARTH
卫星名称:
TIANLIAN 1-02
卫星全名:
--
卫星状态:
在轨 (已飞行5495 天)
发射日期:
2011-07-11 UTC
国别 :
中国 (CN)
星等 :
--
轨道信息
数据来源 国际轨道数据 AOE轨道数据
星历时间 2026-07-27T22:04:21+0800
8小时前
查看轨道信息
2026-07-26T11:00:00+0800
1天前
查看轨道信息
半长轴 42526.475km 42526.36km
偏心率 0.0004605 0.0004651
轨道倾角 5.648° 5.644°
近地点辐角 252.640° 254.253°
升交点赤经 67.037° 67.052°
平近点角 106.070° 303.630°
近地点 36128.754km 36128.443km
远地点 36167.922km 36168.003km
周期 1454.617分钟 1454.612分钟
每日圈数 0.989951 0.989955
详细信息
使用方式:
暂无
2D轨道图
3D轨道图
轨道高度分析图
轨道倾角分析图
轨道综合分析图
查看轨道综合分析图